Погода в Яндыках

Россия / Астраханская область     45°46′04″N   47°07′34″E
темп.,
°C
ветер,
м/с
пор.,
м/с
влажн.,
%
обл.,
%
осадки,
мм/ч
давл.,
гПа
погр.,
м
17 апреля, сб
сб1701:00+15зсз224478 0.0 101911
04:00+13зюз1150100 0.0 101911
07:00+15в2246100 0.0 101914
10:00+20юв333539 0.0 1019613
13:00+22ююв5429100 0.0 10191590
16:00+21ююв4426100 0.0 10191105
19:00+19ю4534100 0.0 1020401
22:00+16зюз3444100 0.0 1020129
18 апреля, вс
вс1801:00+14с5876100 0.6 1020312
04:00+13с5784100 1.5 1021378
07:00+13ссв3485100 0.3 1020291
10:00+13св2279100 0.3 1020264
13:00+17с115999 0.0 1019939
16:00+19св1249100 0.0 10181542
19:00+17сз2264100 0.0 1018300
22:00+16зсз2269100 0.1 1019153
19 апреля, пн
пн1901:00+15зсз2372100 0.1 1019178
04:00+15ссз227261 0.1 101891
07:00+14зсз117496 0.0 101822
10:00+18ююв0158100 0.0 1018675
13:00+20ююз2248100 0.0 10171318
16:00+22ю3243100 0.0 10161589
19:00+19ююв6653100 0.0 1016505
22:00+16юв4761100 0.0 1016262
20 апреля, вт
вт2001:00+15ююв4868100 0.0 1015234
04:00+14вюв496965 0.0 1014251
07:00+15вюв6136246 0.0 1013430
10:00+19вюв111443100 0.0 1012798
13:00+20юв111539100 0.0 1011815
16:00+20вюв111541100 0.0 1010822
19:00+17вюв91655100 0.0 1010697
22:00+16в61263100 0.0 1011340
21 апреля, ср
ср2101:00+16в61065100 0.0 1012288
04:00+15ссв4568100 0.0 1013140
07:00+15с5669100 0.1 1015369
10:00+12ссв81185100 7.3 1017384
13:00+13с5781100 0.1 1018557
16:00+16ссв666895 0.1 1018790
19:00+15ссв797379 0.0 1019568
22:00+14с71176100 0.0 1019510